STARLINK-1397, 45682

Orbit data source: Space-Track

STARLINK-1397, 45682 is a payload satellite owned by SpaceX/Seattle (US) in LEO that was launched on Thu, 04 Jun 2020 UTC via an FALCON 9 launch vehicle from the Air Force Eastern Test Range (AFETR). Payloads include a variety of satellites, spacecraft, and rockets equipped with specific instruments for various scientific and technological missions. These include communications satellites like Starlink; space stations such as the ISS; scientific satellites like the Hubble; Earth observation satellites from companies like Planet Labs, Umbra, and HawkEye 360; GPS; miniature CubeSats for education and research; and military/defense satellites.

Loading next visibility...
STARLINK-1397 details
Identifier
45682, 2020-035AB
Orbit
LEO
Last TLE update12 hours ago
Origin
Flag of USSpaceX/Seattle (US)
ManufacturerSpaceX/Seattle
MissionOperational Commercial Communications
Bus & MotorSTARLINK, Unknown motor
Mass260 kg wet, ~248 kg dry
Launch date (UTC)
2020-06-04 (5 years ago)
Launch vehicle
FALCON 9
Launch site
Air Force Eastern Test Range (AFETR)
Object type
Payload
Rocket body
Debris
Shape & HBRBox + 1 Pan, 8.86 m
Radar Cross Section13.562 m², Large (>1 m²)

Expand to show TLE details & history

TLE from 12 hours ago
0 STARLINK-1397
1 45682U 20035AB  24360.92569100  .00002922  00000-0  84724-4 0  9996
2 45682  53.0527 220.2312 0001085 108.0816 252.0305 15.38963514252415
Epoch: 2024-12-25T22:12Z
Definitive object data (Epoch: 2024-12-25T22:12:59.702Z)
Latitude-0.00005°
Longitude152.06996°
Altitude450.293 km
Speed7.643 km/s
True Right ascension14h 40m 55s
True Declination0° 00' 00"
Sunlit
Object was in daylight at TLE epoch
Visualization TLE readout
Latitude-24.46899°
Longitude-10.35604°
Altitude456.38 km
Speed7.639 km/s
Apparent Right ascension01h 08m 00s
Apparent Declination-42° 46' 39"
Sunlit
Object is in full shadow
Visualization observer readout
Local Sidereal Time09:23:29
Azimuth247.022° WSW
Elevation-48.552°
Doppler factor1
Orbital elements
Apogee altitude450.189 km
Perigee altitude448.707 km
Semi-major axis6,827.585 km
Eccentricity0.0001085
Inclination53.0527°
RAAN220.2312°
Arg. of periapsis108.0816°
True anomaly252.01867°
Mean anomaly252.0305°
Eccentric anomaly252.02459°
Mean motion3.84718 °/min
BSTAR0.000084724
Orbital period93.58 mins
Loading maneuver chart data...

STARLINK-1397 Visibility forecast

Observer location: undefined°, undefined

Span
Click to sort rows by Start time (UTC) header in descending order
Start Az.
Max El. time (UTC)
Max El. Az.
Max El.
End time (UTC)
End Az.
5 mins2024-12-26 17:05:22.469Z201.347° SSW2024-12-26 17:07:22.469Z159.575° S32.479°2024-12-26 17:10:22.469Z67.816° E
4 mins2024-12-26 18:43:22.469Z285.544° WNW2024-12-26 18:45:22.469Z333.339° NNW23.249°2024-12-26 18:47:22.469Z19.444° NNE
5 mins2024-12-26 23:38:22.469Z333.326° NNW2024-12-26 23:40:22.469Z29.166° NE31.592°2024-12-26 23:43:22.469Z100.822° ESE
4 mins2024-12-27 01:16:22.469Z261.814° W2024-12-27 01:17:22.469Z237.237° WSW21.717°2024-12-27 01:20:22.469Z175.74° S
|